[[{"header":{"parameterUnit":"m.s-1","parameterCategory":1,"la1":30.2991,"la2":30.254,"lo1":-89.0895,"lo2":-89.0444,"dy":0.0017,"dx":0.0017,"nx":28,"ny":28,"refTime":"2025-04-29T03:00:00:Z","depth":0,"parameterNumber":2,"parameterNumberName":"U-component_of_WINDS"},"data":[0,0,0,0,0,0,0,0,0,0,0,0,0,0,0,0,0,0,0,0,0,0,0,0,0,0,0,0,0,0,0,0,0,0,0,0,0,0,0,0,0,0,0,0,0,0,0,0,0,0,0,0,0,0,0,0,0,0,-1.0714,-1.0714,0,-1.0675,-1.0674,-1.0674,-1.0629,-1.0628,-1.0627,-1.0627,-1.0587,-1.0586,-1.0586,0,0,0,0,0,0,0,0,0,0,0,0,0,-1.0753,-1.0753,-1.0714,-1.0714,-1.0713,-1.0675,-1.0674,-1.0673,-1.0629,-1.0628,-1.0627,-1.0626,-1.0587,-1.0586,-1.0586,0,0,0,0,0,0,0,0,0,0,0,0,0,-1.0727,-1.0753,-1.0714,-1.0686,-1.0683,-1.0675,-1.0674,-1.0673,-1.0629,-1.0628,-1.0627,-1.0626,-1.0587,-1.0586,-1.0586,-1.0602,0,0,-1.0584,-1.0584,0,0,0,0,0,0,0,0,-1.0729,-1.0726,-1.0691,-1.0688,-1.0685,-1.0655,-1.0673,-1.0649,-1.0629,-1.065,-1.0627,-1.0625,-1.061,-1.0608,-1.0603,-1.06,-1.0598,-1.0584,-1.0583,-1.0583,-1.0583,0,0,0,0,0,0,0,-1.0731,-1.0727,-1.0699,-1.069,-1.0687,-1.0676,-1.0671,-1.0668,-1.0636,-1.0648,-1.0644,-1.064,-1.0609,-1.0603,-1.0601,-1.0598,-1.0584,-1.0583,-1.0583,-1.0583,-1.0607,-1.0608,0,0,0,0,0,0,-1.0736,-1.0729,-1.07,-1.0697,-1.0705,-1.0676,-1.0671,-1.0666,-1.0636,-1.0631,-1.0641,-1.0638,-1.0605,-1.0602,-1.06,-1.0617,-1.0583,-1.0582,-1.0582,-1.0606,-1.0608,-1.0609,0,0,0,0,0,0,-1.0737,-1.0734,-1.0701,-1.0712,-1.0707,-1.0677,-1.0671,-1.0666,-1.066,-1.0631,-1.0625,-1.0642,-1.0604,-1.0601,-1.0602,-1.0615,-1.0582,-1.0582,-1.0605,-1.0607,-1.0608,-1.0652,0,0,0,0,0,0,-1.0739,-1.0735,-1.074,-1.0713,-1.0707,-1.0704,-1.0672,-1.0666,-1.0659,-1.0655,-1.063,-1.0625,-1.0603,-1.0603,-1.0601,-1.0614,-1.0581,-1.0604,-1.0606,-1.0608,-1.0649,-1.0655,-1.066,0,0,0,0,0,-1.074,-1.0754,-1.0741,-1.0737,-1.0713,-1.0705,-1.0701,-1.0676,-1.066,-1.0666,-1.0647,-1.0626,-1.0614,-1.0604,-1.0601,-1.0614,-1.0603,-1.0605,-1.0608,-1.0647,-1.0654,-1.066,0,0,0,0,0,0,-1.0784,-1.075,-1.0735,-1.074,-1.0726,-1.0697,-1.0703,-1.0684,-1.0674,-1.067,-1.0639,-1.0634,-1.0639,-1.0626,-1.0615,-1.0628,-1.0605,-1.0607,-1.0636,-1.0643,-1.0648,-1.0651,-1.0581,0,0,0,0,0,-1.0795,-1.079,-1.0761,-1.0768,-1.0762,-1.0734,-1.0729,-1.0711,-1.0695,-1.0689,-1.067,-1.0656,-1.0649,-1.0645,-1.0637,-1.0647,-1.0642,-1.0655,-1.066,-1.0665,-1.0667,-1.0672,-1.0678,-1.0617,-1.0617,-1.0617,0,0,-1.0816,-1.0797,-1.0796,-1.0777,-1.0763,-1.076,-1.0729,-1.0727,-1.0725,-1.0688,-1.0688,-1.0675,-1.0656,-1.0663,-1.0664,-1.0652,-1.0683,-1.0668,-1.0672,-1.0671,-1.0675,-1.0681,-1.0686,-1.0618,-1.0618,-1.0618,0,0,-1.0853,-1.0838,-1.0843,-1.083,-1.081,-1.0792,-1.0793,-1.0768,-1.0757,-1.0756,-1.073,-1.0727,-1.0715,-1.0704,-1.0696,-1.073,-1.071,-1.0729,-1.0756,-1.0762,-1.0767,-1.0771,-1.0784,-1.0789,-1.0731,-1.0731,-1.0731,0,-1.0882,-1.0876,-1.0848,-1.0847,-1.084,-1.0807,-1.0813,-1.0802,-1.0781,-1.0777,-1.0764,-1.0749,-1.0735,-1.0738,-1.0747,-1.0742,-1.0743,-1.0731,-1.0768,-1.0772,-1.0776,-1.0787,-1.0792,-1.0733,-1.0733,-1.0733,-1.0733,0,-1.0913,-1.0909,-1.0915,-1.0896,-1.0889,-1.0892,-1.0865,-1.0862,-1.0845,-1.0828,-1.0828,-1.081,-1.0798,-1.0797,-1.078,-1.0799,-1.0792,-1.0774,-1.075,-1.0784,-1.0795,-1.0799,-1.0737,-1.0736,-1.0735,-1.0735,0,0,-1.0976,-1.0941,-1.0944,-1.0935,-1.0911,-1.0908,-1.091,-1.0898,-1.0896,-1.0883,-1.0884,-1.0876,-1.0859,-1.0851,-1.0832,-1.0837,-1.0867,-1.0819,-1.0818,-1.0829,-1.0887,-1.0901,-1.0906,-1.0853,-1.0854,-1.0854,-1.0888,0,-1.101,-1.101,-1.0985,-1.0992,-1.0989,-1.0958,-1.0959,-1.0945,-1.093,-1.0925,-1.0908,-1.0903,-1.0881,-1.0876,-1.088,-1.0862,-1.0878,-1.0859,-1.0854,-1.0854,-1.086,-1.0912,-1.0926,-1.0959,-1.0892,-1.0893,-1.0894,0,-1.1048,-1.1037,-1.1044,-1.1021,-1.1018,-1.102,-1.1008,-1.1003,-1.0987,-1.0976,-1.0967,-1.0946,-1.0947,-1.0925,-1.0925,-1.0913,-1.091,-1.0901,-1.0902,-1.09,-1.0876,-1.0912,-1.0969,-1.0974,-1.09,-1.0899,-1.0899,0,-1.1095,-1.1082,-1.1084,-1.1077,-1.105,-1.1052,-1.1041,-1.1023,-1.1018,-1.1008,-1.1004,-1.0994,-1.0989,-1.0982,-1.0959,-1.0944,-1.0963,-1.0938,-1.0954,-1.0954,-1.0959,-1.0959,-1.1016,-1.0956,-1.0956,-1.0956,-1.0956,0,-1.1135,-1.114,-1.1105,-1.1106,-1.1112,-1.1084,-1.1091,-1.1077,-1.1062,-1.1061,-1.1033,-1.1033,-1.1003,-1.0999,-1.0981,-1.0985,-1.0983,-1.0974,-1.0969,-1.0977,-1.0978,-1.0974,-1.0971,-1.0957,-1.0957,-1.0957,-1.0956,0,-1.1188,-1.1164,-1.1165,-1.1139,-1.1132,-1.1138,-1.1116,-1.1117,-1.11,-1.1099,-1.1097,-1.1071,-1.1065,-1.1042,-1.1031,-1.1019,-1.1029,-1.1019,-1.1034,-1.1031,-1.1048,-1.1047,-1.1106,-1.1112,-1.1047,-1.1048,-1.1049,0,-1.1215,-1.1219,-1.1193,-1.119,-1.118,-1.1176,-1.1171,-1.1143,-1.1139,-1.1121,-1.1125,-1.1117,-1.1109,-1.1102,-1.1083,-1.1074,-1.1064,-1.1085,-1.1063,-1.1071,-1.1065,-1.1066,-1.1066,-1.109,-1.1091,-1.1092,-1.1092,0,-1.1266,-1.1255,-1.1247,-1.1237,-1.1231,-1.1221,-1.121,-1.1209,-1.1179,-1.1176,-1.117,-1.1164,-1.1153,-1.1146,-1.1135,-1.1124,-1.1104,-1.11,-1.1103,-1.1111,-1.112,-1.1116,-1.1048,-1.1099,-1.1098,-1.1097,-1.1097,-1.1097,-1.1308,-1.131,-1.1292,-1.1286,-1.1274,-1.1265,-1.1264,-1.1247,-1.1242,-1.123,-1.1215,-1.1211,-1.1196,-1.1178,-1.1169,-1.1166,-1.1154,-1.1159,-1.116,-1.1162,-1.1166,-1.112,-1.1164,-1.1163,-1.1163,-1.1163,-1.1163,0,-1.1358,-1.1346,-1.134,-1.1325,-1.132,-1.1301,-1.1288,-1.1285,-1.1282,-1.1269,-1.1262,-1.1256,-1.1249,-1.1229,-1.122,-1.1222,-1.1213,-1.1221,-1.1221,-1.1219,-1.1176,-1.1175,-1.1229,-1.1229,-1.1229,-1.1229,-1.1229,-1.1229,-1.1384,-1.1387,-1.1373,-1.137,-1.1357,-1.1353,-1.1348,-1.1339,-1.1328,-1.1322,-1.1317,-1.1303,-1.1288,-1.1278,-1.1272,-1.1266,-1.1264,-1.1276,-1.1267,-1.1228,-1.1222,-1.1216,-1.1214,-1.1275,-1.1275,-1.131,-1.131,-1.131]},{"header":{"parameterUnit":"m.s-1","parameterCategory":1,"la1":30.2991,"la2":30.254,"lo1":-89.0895,"lo2":-89.0444,"dy":0.0017,"dx":0.0017,"nx":28,"ny":28,"refTime":"2025-04-29T03:00:00:Z","depth":0,"parameterNumber":3,"parameterNumberName":"V-component_of_WINDS"},"data":[0,0,0,0,0,0,0,0,0,0,0,0,0,0,0,0,0,0,0,0,0,0,0,0,0,0,0,0,0,0,0,0,0,0,0,0,0,0,0,0,0,0,0,0,0,0,0,0,0,0,0,0,0,0,0,0,0,0,4.5797,4.5797,0,4.5776,4.5776,4.5776,4.5716,4.5715,4.5714,4.5712,4.5692,4.5693,4.5693,0,0,0,0,0,0,0,0,0,0,0,0,0,4.5788,4.5789,4.5798,4.5797,4.5797,4.5776,4.5776,4.5776,4.5716,4.5715,4.5713,4.5712,4.5692,4.5693,4.5693,0,0,0,0,0,0,0,0,0,0,0,0,0,4.5782,4.5789,4.5798,4.5765,4.5762,4.5777,4.5776,4.5776,4.5717,4.5715,4.5713,4.5711,4.5692,4.5693,4.5694,4.5739,0,0,4.5697,4.5697,0,0,0,0,0,0,0,0,4.5783,4.5783,4.577,4.5767,4.5764,4.5747,4.5765,4.5763,4.5717,4.5734,4.5712,4.571,4.5712,4.5711,4.5712,4.5738,4.5737,4.5697,4.5697,4.5698,4.5698,0,0,0,0,0,0,0,4.5783,4.5783,4.5789,4.577,4.5766,4.5752,4.5749,4.5765,4.5734,4.5732,4.5728,4.5726,4.571,4.5711,4.5711,4.5737,4.5697,4.5698,4.5698,4.5699,4.58,4.5802,0,0,0,0,0,0,4.5788,4.5784,4.579,4.5789,4.5768,4.5754,4.575,4.5754,4.5734,4.5729,4.5728,4.5723,4.571,4.571,4.571,4.5761,4.5698,4.5699,4.5699,4.5798,4.58,4.5802,0,0,0,0,0,0,4.5788,4.5789,4.5791,4.5785,4.5784,4.5756,4.5761,4.5755,4.5755,4.573,4.5725,4.5734,4.5708,4.5708,4.5732,4.576,4.5699,4.57,4.5795,4.5798,4.5801,4.5865,0,0,0,0,0,0,4.5788,4.5789,4.5806,4.5786,4.5785,4.5813,4.5763,4.5756,4.5757,4.5751,4.5735,4.573,4.5707,4.5731,4.5733,4.576,4.5701,4.5793,4.5797,4.58,4.586,4.587,4.5878,0,0,0,0,0,4.5788,4.5825,4.5807,4.5808,4.5804,4.5815,4.5814,4.5786,4.576,4.5776,4.576,4.5731,4.5757,4.5734,4.5736,4.5763,4.5791,4.5796,4.58,4.5856,4.5868,4.5878,0,0,0,0,0,0,4.5849,4.5821,4.5801,4.5833,4.5827,4.5804,4.5824,4.5799,4.58,4.5795,4.5761,4.5757,4.5786,4.5777,4.5752,4.5806,4.5769,4.5774,4.5811,4.5822,4.5831,4.5832,4.5702,0,0,0,0,0,4.5866,4.5876,4.5852,4.5882,4.588,4.5853,4.5856,4.5835,4.5827,4.5825,4.581,4.5804,4.5811,4.5816,4.5821,4.5859,4.5855,4.5879,4.5888,4.5896,4.59,4.592,4.5931,4.5818,4.5818,4.5818,0,0,4.5901,4.5888,4.5896,4.5894,4.5886,4.5898,4.5851,4.5865,4.5873,4.5827,4.5848,4.5838,4.5829,4.586,4.5873,4.5854,4.5931,4.5902,4.5908,4.5908,4.5926,4.5937,4.5946,4.5821,4.582,4.582,0,0,4.5971,4.5962,4.5986,4.598,4.5969,4.5951,4.5957,4.5939,4.5931,4.5951,4.5917,4.5927,4.5939,4.5934,4.5933,4.6003,4.5976,4.6006,4.6052,4.6072,4.6081,4.6088,4.6113,4.6122,4.6011,4.6011,4.6011,0,4.6016,4.6032,4.6001,4.6018,4.6018,4.5977,4.6001,4.5997,4.5989,4.599,4.5969,4.5983,4.5975,4.6004,4.6021,4.6022,4.6028,4.6007,4.6082,4.6089,4.6096,4.6119,4.6128,4.6015,4.6015,4.6014,4.6014,0,4.6088,4.6099,4.612,4.6113,4.6116,4.6136,4.611,4.6116,4.6096,4.6081,4.6103,4.6091,4.6093,4.6099,4.6079,4.6126,4.6114,4.6088,4.6049,4.6111,4.6132,4.6141,4.602,4.6019,4.6018,4.6017,0,0,4.6194,4.617,4.6179,4.6175,4.6161,4.617,4.6189,4.619,4.6197,4.6193,4.6208,4.6221,4.6196,4.6196,4.6175,4.6193,4.6249,4.6164,4.6163,4.618,4.6299,4.6319,4.6329,4.6231,4.6233,4.6234,4.63,0,4.6259,4.629,4.6264,4.6299,4.631,4.6271,4.6288,4.6282,4.6269,4.6276,4.6262,4.6271,4.6238,4.6238,4.6253,4.6238,4.6272,4.6233,4.6245,4.6246,4.6247,4.634,4.636,4.6423,4.6308,4.631,4.6311,0,4.6339,4.6339,4.6376,4.636,4.6363,4.6379,4.6378,4.6386,4.6379,4.6368,4.6368,4.6343,4.6361,4.6325,4.6349,4.6324,4.6327,4.6321,4.6323,4.6322,4.6281,4.6341,4.6442,4.6452,4.6323,4.6322,4.6321,0,4.6412,4.6421,4.6444,4.6443,4.6425,4.6437,4.643,4.6421,4.6424,4.6424,4.6426,4.6428,4.643,4.6433,4.6409,4.6385,4.6437,4.6399,4.6429,4.643,4.6441,4.644,4.6543,4.6445,4.6445,4.6444,4.6444,0,4.6487,4.6511,4.6477,4.6491,4.6517,4.6488,4.6514,4.6504,4.6496,4.6508,4.6476,4.6487,4.6456,4.6465,4.6448,4.6471,4.6472,4.6464,4.6459,4.6466,4.6467,4.6467,4.6462,4.6447,4.6446,4.6446,4.6445,0,4.6572,4.655,4.6573,4.6555,4.6551,4.6571,4.6556,4.6568,4.6553,4.6569,4.6571,4.6548,4.6557,4.6534,4.654,4.6528,4.6562,4.655,4.6564,4.656,4.6591,4.6589,4.6697,4.671,4.6604,4.6606,4.6606,0,4.6621,4.6638,4.6623,4.6628,4.6623,4.6632,4.6635,4.6608,4.6612,4.6606,4.6619,4.6626,4.6629,4.6646,4.663,4.6634,4.6622,4.666,4.6622,4.6629,4.6622,4.662,4.6622,4.6667,4.6668,4.6669,4.667,0,4.671,4.6699,4.6704,4.6705,4.671,4.671,4.6708,4.6714,4.6685,4.6692,4.6701,4.6703,4.6709,4.6716,4.6717,4.6711,4.6686,4.6682,4.6689,4.6697,4.6704,4.67,4.6584,4.668,4.6679,4.6678,4.6677,4.6677,4.6778,4.6792,4.6783,4.679,4.6785,4.6785,4.6796,4.6782,4.6789,4.6791,4.6775,4.6788,4.6781,4.678,4.6776,4.6786,4.6769,4.6779,4.6782,4.6784,4.6789,4.6704,4.6786,4.6786,4.6786,4.6785,4.6785,0,4.6864,4.6857,4.6864,4.6862,4.6868,4.6844,4.6841,4.6848,4.6859,4.6854,4.6859,4.6869,4.6876,4.6861,4.6866,4.6876,4.6865,4.6878,4.6877,4.6876,4.6805,4.6798,4.6887,4.6887,4.6887,4.6887,4.6887,4.6887,4.691,4.6932,4.692,4.694,4.6933,4.6944,4.6945,4.6944,4.694,4.6953,4.6959,4.6949,4.6941,4.6944,4.695,4.6945,4.6948,4.6966,4.6957,4.6891,4.6881,4.6871,4.6864,4.6967,4.6967,4.7027,4.7028,4.7028]}]]